Вернуться в каталог

STARLINK-34380

АктивенСвязьVLEO
NORAD 64307·PAYLOAD·🇺🇸 United States

Запущен Jun 8, 2025 с Vandenberg Space Force Base

Loading…

Ближайшие Пролёты (ближайшие 24 часа)

TLE

СвежийSource: CelesTrak SupGP

Эпоха: Sep 15, 2026, 03:12 UTC

1 64307C 25123S   26258.13381944 -.00046483  00000+0 -16178-2 0  2588
2 64307  69.9998  75.1283 0003200 271.5174 222.2200 15.29587435    10

Отслеживайте STARLINK-34380 в реальном времени с AllMySat

Download on the App Store